Regional Weather Roundup
Issued by NWS

Home | Current Version | Previous Version | Graphics & Text | Print | Product List | Glossary Off
Versions: 1 2 3 4 5 6 7 8 9 10 11 12 13 14 15 16 17 18 19 20 21 22 23 24 25 26 27 28 29 30 31 32 33 34 35 36 37 38 39 40 41 42 43 44 45 46 47 48 49 50

000
ASUS43 KOAX 171010
RWRNE

WEATHER ROUNDUP FOR NEBRASKA
NATIONAL WEATHER SERVICE OMAHA NE
500 AM CDT WED SEP 17 2014

NOTES: SATELLITE DATA IS BEING USED TO AUGMENT CLOUD COVER ABOVE
       12000 FEET.
       "FAIR" INDICATES FEW OR NO CLOUDS BELOW 12,000 FEET WITH NO
       SIGNIFICANT WEATHER AND/OR OBSTRUCTIONS TO VISIBILITY.

  * THESE STATIONS DO NOT REPORT WEATHER SUCH AS RAIN...SNOW OR FOG.

NEZ001>004-019>022-054>056-171100-
NEBRASKA PANHANDLE

CITY           SKY/WX    TMP DP  RH WIND       PRES   REMARKS
SCOTTSBLUFF    PTCLDY    52  46  80 NW5       29.99R
ALLIANCE       CLEAR     46  44  93 CALM      29.98S
CHADRON        PTCLDY    51  47  86 SW8       29.96S
KIMBALL        CLEAR     49  41  72 W6        30.02F
SIDNEY         CLEAR     48  43  82 W5        30.01F
$$

NEZ057>060-069>072-079>082-171100-
SOUTHWEST NEBRASKA

CITY           SKY/WX    TMP DP  RH WIND       PRES   REMARKS
NORTH PLATTE   FOG       47  45  93 CALM      29.96S VSB 1
IMPERIAL       CLEAR     50  49  96 N5        29.96F
LEXINGTON      CLEAR     46  46  97 W3        29.95S FOG
MCCOOK         CLEAR     51  50  96 W3        29.95S FOG
OGALLALA       FOG       49  48  98 CALM      29.97F VSB 1/4
$$

NEZ005>010-023>029-035>040-094-171100-
NORTH CENTRAL NEBRASKA

CITY           SKY/WX    TMP DP  RH WIND       PRES   REMARKS
VALENTINE      CLEAR     49  47  93 SW3       29.93S
BROKEN BOW     FOG       46  45  96 CALM      29.94F VSB 3/4
O`NEILL        CLEAR     51  51 100 S5        29.93S FOG
ORD            CLEAR     46  46 100 CALM      29.93S
THEDFORD         N/A     52  51  98 CALM      29.96S
$$

NEZ041-046>049-061>064-073>077-083>087-171100-
SOUTH CENTRAL NEBRASKA

CITY           SKY/WX    TMP DP  RH WIND       PRES   REMARKS
GRAND ISLAND   CLEAR     51  48  89 N3        29.94S
HASTINGS       CLEAR     52  48  86 NE3       29.92F
HEBRON         CLOUDY    56  54  90 CALM      29.92S
HOLDREGE       CLEAR     49  48  95 CALM      29.93S
KEARNEY *      CLEAR     50  46  87 W6        29.94S
YORK           CLEAR     54  50  87 CALM      29.93F
$$

NEZ011>018-030>034-042>045-171100-
NORTHEAST NEBRASKA

CITY           SKY/WX    TMP DP  RH WIND       PRES   REMARKS
NORFOLK        CLEAR     48  47  96 CALM      29.94S
ALBION         FAIR      47  45  93 CALM      29.94F
BLAIR          CLOUDY    60  54  78 SE5       29.93F
COLUMBUS *     CLEAR     50  48  93 CALM      29.94F
FREMONT        PTCLDY    58  52  80 CALM      29.94S
TEKAMAH        MOCLDY    56  54  93 CALM      29.94F
WAYNE          PTCLDY    51  50  95 CALM      29.94F
$$

NEZ050>053-065>068-078-088>093-171100-
SOUTHEAST NEBRASKA

CITY           SKY/WX    TMP DP  RH WIND       PRES   REMARKS
LINCOLN        CLEAR     55  51  86 E3        29.94F
OMAHA EPPLEY   MOCLDY    61  53  75 SE6       29.94F
BEATRICE       CLOUDY    61  58  88 SE3       29.92R
FALLS CITY     CLOUDY    61  57  87 E3        29.92F
NEBRASKA CITY  CLOUDY    60  52  75 CALM      29.94S
PLATTSMOUTH    MOCLDY    58  53  81 E5        29.94S
$$

NEZ044-045-051>053-067-171100-
OMAHA AREA

CITY           SKY/WX    TMP DP  RH WIND       PRES   REMARKS
OMAHA EPPLEY   MOCLDY    61  53  75 SE6       29.94F
BLAIR          CLOUDY    60  54  78 SE5       29.93F
FREMONT        PTCLDY    58  52  80 CALM      29.94S
MILLARD        MOCLDY    60  55  83 CALM      29.93F
OFFUTT AFB     PTCLDY    59  59  99 E5        29.93F
PLATTSMOUTH    MOCLDY    58  53  81 E5        29.94S
WAHOO          FAIR      56  53  88 CALM      29.93F
$$


USA.gov is the U.S. government's official web portal to all federal, state and local government web resources and services.